Temperature
23 23 24 24 22 22 21 20 20 19 18 17 17 18 19 18 17 17 17 16 16 16 16 16 16 16 16 15 16 16 15 15 15 15 14 14 14 13 13 14 14 15 15
22 21 24 24 23 22 21 20 20 19 17 17 18 18 18 18 17 17 16 17 17 16 16 15 16 16 16 15 15 15 15 15 15 16 15 15 15 14 14 14 14 15 15
23 21 22 22 23 22 22 21 20 18 17 17 17 18 17 17 17 16 16 17 17 16 16 15 15 16 16 16 15 15 15 15 15 16 16 16 17 15 14 14 14 14 15
22 22 21 21 21 21 20 19 18 17 17 17 17 17 17 17 17 16 16 16 16 16 16 16 16 16 16 16 16 16 15 15 15 15 16 16 17 17 16 14 14 14 14
22 21 21 21 20 20 19 18 17 17 17 17 17 16 16 16 16 16 16 15 15 15 16 16 16 15 15 15 16 15 16 16 15 15 15 15 16 17 18 16 14 14 14
22 21 21 21 20 20 20 19 18 17 17 17 17 16 16 16 16 15 15 15 15 15 15 15 15 15 15 15 15 15 15 16 16 16 16 16 16 17 17 18 17 16 15
22 21 21 20 20 20 20 19 19 18 17 17 16 16 15 15 15 15 15 14 15 15 15 14 14 14 14 15 16 15 15 16 15 16 16 16 16 17 17 18 18 17 15
22 22 21 20 19 19 19 18 18 17 17 16 16 16 15 15 15 15 14 14 14 14 14 14 14 14 14 14 15 14 14 15 15 15 15 15 16 16 16 17 17 17 17
22 22 21 20 19 19 19 19 18 17 18 16 16 16 15 15 15 14 14 14 14 14 13 13 13 13 13 13 13 14 14 14 14 14 15 15 15 15 15 16 16 16 16
22 22 21 20 20 19 19 19 18 17 17 17 16 15 16 15 16 15 14 14 13 14 13 13 13 13 13 13 13 13 14 13 14 14 14 14 15 15 15 15 15 16 16
22 22 22 21 20 20 20 20 19 18 18 17 16 16 16 16 16 15 14 14 13 13 13 13 13 13 13 12 12 13 12 13 13 14 15 15 15 14 14 15 15 15 15
22 21 21 21 20 20 20 20 19 18 18 18 17 17 16 16 16 15 14 14 14 13 13 13 13 13 13 12 12 13 12 12 13 13 13 14 14 14 14 15 15 15 15
22 21 21 21 20 20 19 20 20 19 18 19 18 16 16 16 16 15 14 15 14 13 13 13 13 13 12 12 13 13 12 12 12 12 13 13 13 14 14 15 15 15 15
22 21 21 20 20 20 19 20 20 20 19 18 18 17 16 16 16 15 15 14 14 14 14 14 13 13 13 13 13 13 13 13 13 13 13 14 13 15 15 15 15 15 14
22 21 21 20 20 19 19 20 20 20 19 18 17 16 16 15 15 15 15 14 13 14 14 14 14 14 14 14 14 14 14 14 14 14 14 14 13 14 14 14 15 14 14
21 21 20 20 19 19 19 19 19 20 19 18 17 16 16 16 15 15 15 14 14 13 13 14 14 14 14 14 15 14 14 14 14 14 14 13 14 14 14 14 14 14 14
20 19 19 18 18 18 18 19 18 17 17 16 16 15 16 16 16 16 16 15 15 14 13 13 14 13 13 14 14 14 14 13 13 14 14 14 14 14 14 14 15 14 14
18 18 17 17 17 17 18 19 18 18 17 16 16 15 15 14 15 16 16 15 14 14 15 14 14 14 13 13 14 14 13 13 13 13 14 14 13 13 14 14 14 14 14
16 16 16 17 17 17 17 17 17 16 16 16 15 15 14 14 14 15 16 15 14 15 15 15 14 14 13 13 13 13 13 13 13 13 13 13 13 14 14 14 14 14 14
15 15 15 16 16 16 16 16 16 15 14 14 14 14 15 14 13 13 13 15 15 15 14 14 14 14 13 13 13 13 13 13 13 13 13 13 13 14 13 13 13 13 13
15 15 15 15 15 15 14 14 13 13 13 13 12 12 13 13 13 13 13 14 14 13 13 13 14 13 13 13 13 13 12 12 13 13 13 14 14 13 13 13 12 13 13
15 14 14 15 14 14 14 13 12 12 12 11 11 11 12 12 12 12 12 12 12 12 12 12 12 12 12 12 12 13 12 12 12 13 13 13 13 13 13 13 12 12 12
14 14 14 13 13 13 13 13 12 12 11 11 11 10 10 11 11 11 10 10 11 11 11 11 11 11 12 12 12 12 12 12 12 12 12 13 13 12 12 12 12 12 12
14 14 13 13 13 13 13 12 12 12 11 11 11 10 10 10 10 9 10 10 10 11 11 11 11 11 11 11 12 12 12 12 12 12 12 12 12 12 12 12 12 11 11
15 14 14 13 13 13 13 13 13 12 12 11 11 11 11 10 10 10 10 10 10 10 11 11 11 11 11 11 12 12 12 12 11 11 11 12 11 11 11 12 12 11 11
15 14 13 13 13 13 13 13 13 12 12 12 11 10 10 10 11 10 10 11 11 11 11 11 11 11 11 11 12 12 12 12 12 12 11 11 11 11 10 11 11 11 11
Wind_Speed
6 6 5 5 7 7 8 8 8 7 7 7 8 7 6 5 8 8 12 12 12 9 6 7 11 11 10 11 9 7 8 8 8 6 5 4 4 5 4 5 6 7 8
9 8 6 4 5 5 5 7 9 9 9 9 8 6 6 6 9 10 10 11 10 7 5 8 9 12 12 10 9 9 7 8 9 7 6 5 5 5 4 3 4 5 6
11 10 7 5 4 5 6 7 9 11 11 9 8 6 6 5 7 9 9 11 14 11 6 7 7 10 12 11 12 11 13 11 11 9 6 4 3 7 5 5 4 4 4
11 10 8 6 5 5 6 7 7 9 10 10 9 9 6 7 7 7 8 10 15 15 14 14 12 12 13 13 12 15 13 12 11 10 9 5 3 5 4 6 6 5 4
12 11 9 7 7 7 6 6 7 7 8 9 8 8 7 6 5 4 5 8 10 13 15 15 10 13 13 14 12 13 13 13 13 13 11 9 7 6 4 7 7 7 6
13 11 9 7 7 7 6 6 6 7 7 7 7 7 7 5 5 4 4 4 6 9 14 15 13 10 12 13 11 11 14 13 15 14 12 11 10 8 7 5 8 7 7
13 12 10 8 7 7 7 7 6 6 7 6 6 6 6 6 6 5 5 5 5 5 9 11 13 13 13 10 6 6 8 13 14 15 13 12 11 9 7 6 5 6 6
11 10 9 8 8 8 8 7 7 7 7 6 6 6 7 5 5 5 5 5 5 5 8 10 11 11 10 10 12 10 5 10 12 14 14 11 9 8 7 7 5 5 6
8 9 9 9 9 10 10 9 9 8 7 6 5 6 5 5 5 5 5 5 5 4 7 9 9 9 9 10 11 13 10 7 11 11 12 10 9 9 8 9 9 7 6
4 6 8 9 10 11 11 11 10 9 8 7 6 5 5 5 5 5 5 5 4 5 4 3 4 7 9 10 10 11 10 7 4 3 3 5 7 9 10 10 10 10 8
7 6 7 9 11 11 11 12 12 11 10 9 7 6 5 5 5 5 5 6 5 6 8 8 8 9 9 9 7 8 11 7 4 1 3 8 10 9 10 11 11 11 10
9 8 7 8 11 12 12 13 13 13 11 9 8 7 6 6 6 6 6 7 7 6 6 5 6 7 7 8 9 8 8 7 4 3 7 10 8 10 10 10 12 12 11
11 8 8 9 10 12 12 13 14 12 11 10 9 8 8 7 6 6 6 7 8 8 7 7 8 9 9 10 10 9 9 9 9 9 6 10 12 11 11 11 12 11 11
11 8 7 9 10 12 13 13 12 11 10 10 10 9 8 8 8 7 8 8 9 8 7 8 8 10 10 10 10 10 11 13 14 12 11 11 14 13 12 11 12 12 12
12 9 9 8 7 9 12 12 11 11 11 10 10 9 8 8 9 9 9 10 9 9 8 7 7 8 8 9 11 12 13 14 13 14 13 12 15 10 7 9 10 10 10
9 7 7 5 2 6 9 10 11 11 11 11 10 9 8 8 10 11 12 11 11 11 10 9 9 8 7 7 6 6 8 9 11 12 11 10 10 10 8 11 13 10 10
6 5 5 7 5 5 6 7 6 4 3 9 9 8 9 10 11 12 13 13 12 11 11 12 11 11 8 8 9 9 8 10 11 12 12 11 8 9 10 13 12 12 13
3 6 9 10 9 8 7 5 5 7 6 5 4 6 8 10 11 12 13 14 13 12 13 13 13 12 9 8 8 8 12 11 11 12 12 10 11 12 11 10 9 11 12
9 10 10 11 11 11 10 9 9 9 7 4 1 2 5 8 10 11 13 13 13 12 13 12 11 10 10 10 9 9 11 11 11 11 11 11 11 8 7 10 9 9 9
10 9 9 10 11 10 10 9 9 9 8 7 6 5 3 2 6 9 10 10 11 11 10 9 8 9 10 9 9 11 10 10 8 7 8 7 6 5 7 8 7 7 5
7 7 8 9 9 8 9 9 9 9 8 7 6 6 6 5 3 2 3 4 6 6 6 6 7 8 9 7 6 7 9 8 6 5 6 6 6 5 6 6 5 3 1
6 5 7 8 8 7 7 9 9 7 6 5 6 6 6 5 3 2 2 3 5 6 6 5 5 5 5 2 3 5 7 5 5 5 5 6 7 6 5 4 1 2 2
4 5 6 6 6 6 5 6 6 6 5 5 5 4 4 4 3 3 5 6 5 5 4 4 4 3 3 2 2 5 7 6 3 5 8 9 8 7 6 4 4 5 4
3 4 4 3 4 4 4 4 3 3 5 5 5 4 4 4 5 3 3 5 4 3 2 2 3 4 3 4 5 7 8 8 7 10 10 9 7 5 5 6 6 5 4
5 5 3 1 1 2 3 3 2 2 4 4 4 5 5 5 5 4 3 3 4 5 3 2 2 1 3 3 4 7 9 10 9 9 8 7 6 6 5 4 3 3 4
6 6 5 4 3 2 3 2 1 1 2 2 4 3 3 4 5 4 3 8 8 8 7 7 6 3 2 4 4 2 3 9 10 7 5 4 4 3 3 4 4 4 4
Wind_Direction
186 190 192 210 213 212 215 202 184 183 168 172 179 185 201 196 225 210 211 208 206 212 221 227 212 200 192 198 198 186 186 180 175 156 141 139 125 112 104 91 86 78 73
188 183 174 176 192 185 189 187 176 171 173 183 192 192 179 200 216 225 212 200 185 183 211 245 236 207 203 206 211 201 184 189 191 182 170 177 165 156 148 130 105 100 92
194 185 177 165 167 175 177 184 177 181 185 181 170 165 162 195 211 212 206 196 190 174 160 240 252 250 231 207 214 208 195 193 202 210 197 209 188 157 172 176 168 147 126
192 182 174 162 164 163 172 181 176 180 182 178 180 195 200 217 229 213 198 199 200 192 192 214 226 233 250 233 214 216 208 205 199 213 229 242 182 189 166 188 197 194 178
190 179 169 160 151 148 158 165 166 176 180 188 200 221 229 229 234 237 210 208 206 207 215 219 222 226 240 240 228 220 216 212 206 208 212 214 214 226 205 171 184 202 206
181 170 157 161 153 144 144 152 164 167 175 192 203 223 226 219 216 207 205 206 221 222 224 220 222 228 241 240 237 219 222 220 218 212 213 210 210 213 222 194 171 189 186
174 171 172 176 169 164 159 161 162 157 169 183 192 208 212 216 219 222 217 207 214 238 244 229 219 217 222 210 176 182 221 226 225 225 220 219 215 218 217 221 186 188 173
178 185 191 188 187 182 177 173 165 159 165 182 193 194 194 211 238 237 217 231 225 221 235 235 233 228 206 176 162 145 185 232 222 226 225 226 226 227 232 235 233 212 196
199 210 212 206 198 195 189 183 177 171 173 185 195 203 205 216 228 232 216 209 217 220 248 237 223 205 184 173 166 149 152 212 220 208 219 218 222 217 233 242 243 241 236
249 238 226 221 212 204 196 189 184 179 184 191 197 208 223 217 229 228 200 206 202 196 220 208 215 199 183 181 167 145 144 162 161 167 205 232 233 219 218 223 236 245 250
349 312 257 229 219 210 201 196 191 186 190 192 189 195 216 227 220 221 203 199 193 188 197 216 209 203 191 181 162 157 151 155 138 80 273 243 233 223 218 218 225 232 236
323 310 273 239 220 213 209 203 202 193 191 191 187 197 207 217 222 214 205 194 194 199 212 216 206 201 181 173 168 165 157 163 164 232 266 265 235 231 224 221 223 227 228
313 304 278 264 247 229 220 212 209 200 186 184 189 196 204 213 222 221 205 196 197 203 211 200 201 211 195 183 183 187 172 182 203 217 245 274 259 229 230 229 228 230 234
299 301 288 268 248 227 217 214 210 199 188 186 194 202 208 210 216 213 210 208 205 209 211 212 207 213 212 207 198 194 210 205 209 207 212 230 262 250 238 239 236 227 228
289 294 294 292 263 223 211 205 204 195 194 193 201 204 211 211 214 206 206 210 213 215 219 223 213 214 209 208 207 202 218 222 214 211 205 200 226 253 271 269 255 236 229
288 304 316 324 262 202 193 190 200 202 198 202 207 201 205 208 217 214 209 212 214 225 223 233 227 221 213 178 220 225 220 240 240 234 226 216 222 233 238 247 257 263 246
327 343 26 47 80 127 166 188 193 143 228 229 205 200 207 210 215 219 218 216 215 217 215 220 228 235 223 173 206 223 235 241 247 247 234 212 207 228 236 229 233 248 243
43 87 89 85 81 76 72 67 98 139 165 235 215 210 219 220 215 218 221 217 210 205 208 213 214 223 222 179 206 219 243 245 246 248 246 233 220 214 223 236 236 238 231
81 84 85 84 77 70 68 68 65 72 79 74 56 231 222 221 216 217 222 220 214 208 207 214 216 217 222 184 199 217 243 245 246 242 234 225 226 206 209 238 241 248 242
75 80 81 78 72 64 61 62 58 53 50 45 46 47 35 282 246 234 227 221 218 218 216 213 214 221 232 192 198 218 236 237 235 230 224 208 229 174 203 238 253 264 260
64 68 76 76 73 70 69 66 57 46 35 31 38 45 40 26 2 305 261 218 218 209 204 198 202 206 223 204 197 215 231 220 210 205 205 197 189 184 203 247 274 296 281
70 78 85 85 77 71 72 71 61 46 36 31 33 37 38 26 25 62 105 146 147 140 143 157 179 199 221 233 175 195 238 256 207 187 190 169 171 185 192 219 154 144 161
88 96 96 92 86 71 58 64 58 36 28 32 32 31 47 52 56 96 121 120 117 125 147 172 176 185 201 192 210 205 211 215 212 138 116 130 151 165 174 180 174 191 178
120 125 125 119 91 69 46 41 43 24 25 34 30 30 42 31 72 87 111 111 101 121 154 180 194 199 200 197 193 183 176 167 150 128 127 125 133 135 133 164 187 199 188
160 162 177 184 100 49 21 11 6 358 23 40 43 45 46 57 77 91 54 50 64 33 27 45 23 3 221 216 249 212 180 182 172 155 155 163 175 170 173 187 198 212 199
171 179 198 219 241 289 335 352 184 265 358 39 52 42 42 75 88 98 81 44 41 50 45 43 31 20 346 310 256 235 127 136 147 160 175 181 197 213 197 199 210 216 223
Height
1491 1492 1493 1496 1499 1500 1502 1504 1504 1506 1508 1510 1512 1515 1516 1519 1523 1524 1525 1527 1530 1533 1536 1540 1543 1544 1545 1546 1549 1550 1553 1555 1557 1558 1559 1560 1559 1559 1559 1559 1559 1559 1559
1488 1490 1491 1493 1495 1497 1498 1500 1501 1502 1505 1507 1509 1512 1515 1517 1518 1519 1521 1522 1524 1526 1530 1536 1541 1542 1543 1543 1545 1548 1549 1553 1555 1557 1558 1559 1561 1559 1560 1560 1561 1561 1561
1486 1489 1490 1492 1493 1495 1496 1497 1498 1500 1502 1505 1507 1510 1511 1514 1515 1515 1516 1518 1520 1521 1526 1531 1536 1538 1540 1541 1541 1544 1546 1549 1552 1555 1556 1557 1556 1558 1560 1560 1560 1560 1560
1483 1487 1489 1491 1492 1494 1495 1496 1497 1500 1502 1503 1505 1507 1510 1511 1512 1512 1511 1513 1516 1518 1521 1523 1528 1532 1534 1536 1537 1539 1542 1546 1547 1550 1553 1554 1554 1555 1558 1559 1560 1560 1560
1481 1485 1488 1490 1492 1493 1494 1495 1496 1499 1500 1502 1503 1505 1507 1509 1509 1509 1508 1509 1510 1511 1514 1517 1520 1524 1527 1530 1532 1534 1538 1541 1544 1547 1549 1551 1552 1553 1554 1556 1558 1559 1558
1478 1483 1486 1488 1490 1492 1493 1494 1495 1497 1499 1500 1500 1501 1504 1506 1505 1505 1506 1506 1508 1508 1509 1511 1514 1517 1520 1523 1526 1529 1533 1536 1540 1544 1546 1548 1549 1551 1553 1553 1555 1557 1558
1477 1481 1484 1486 1489 1490 1492 1493 1494 1496 1497 1498 1498 1500 1502 1503 1504 1504 1503 1503 1503 1504 1504 1505 1506 1509 1512 1514 1518 1522 1527 1531 1535 1539 1542 1545 1547 1548 1550 1552 1553 1555 1556
1477 1480 1484 1486 1487 1489 1491 1492 1493 1494 1495 1497 1498 1498 1499 1499 1501 1501 1501 1500 1500 1500 1501 1502 1503 1505 1507 1507 1510 1516 1522 1526 1529 1533 1537 1540 1543 1545 1547 1549 1550 1552 1553
1478 1480 1483 1485 1487 1489 1490 1491 1492 1493 1494 1495 1496 1497 1498 1497 1498 1498 1499 1498 1497 1497 1499 1500 1501 1501 1502 1503 1504 1508 1517 1522 1525 1528 1532 1535 1537 1539 1541 1544 1547 1549 1550
1477 1479 1481 1483 1485 1487 1488 1488 1490 1491 1492 1493 1494 1495 1496 1496 1496 1497 1498 1497 1497 1496 1496 1497 1497 1497 1498 1500 1501 1504 1511 1518 1521 1523 1526 1528 1532 1534 1537 1539 1542 1544 1545
1477 1477 1478 1480 1483 1484 1484 1485 1486 1488 1489 1490 1491 1492 1494 1494 1494 1495 1496 1496 1497 1496 1496 1496 1496 1495 1496 1497 1499 1501 1506 1512 1515 1518 1521 1525 1528 1531 1533 1535 1537 1539 1540
1474 1474 1475 1476 1477 1477 1480 1481 1484 1485 1485 1486 1488 1490 1491 1492 1492 1493 1493 1494 1495 1495 1496 1497 1496 1496 1496 1496 1498 1500 1505 1509 1512 1517 1519 1522 1525 1527 1530 1532 1533 1534 1535
1470 1471 1471 1471 1472 1474 1475 1478 1481 1483 1482 1483 1485 1487 1488 1489 1489 1490 1492 1492 1493 1494 1496 1497 1496 1496 1497 1497 1498 1500 1503 1507 1511 1514 1516 1519 1521 1524 1527 1528 1529 1529 1529
1466 1467 1468 1467 1467 1468 1470 1473 1476 1479 1480 1480 1482 1485 1486 1486 1487 1488 1489 1490 1491 1493 1495 1496 1496 1496 1497 1498 1498 1499 1501 1505 1509 1511 1514 1517 1518 1521 1523 1525 1525 1524 1524
1463 1463 1463 1462 1461 1463 1465 1468 1472 1475 1476 1476 1478 1481 1483 1484 1485 1486 1487 1488 1489 1490 1492 1493 1494 1495 1497 1498 1499 1500 1501 1504 1505 1507 1509 1511 1514 1517 1517 1518 1519 1518 1518
1460 1460 1459 1458 1457 1458 1461 1464 1467 1470 1471 1472 1474 1476 1478 1480 1481 1483 1484 1485 1486 1488 1489 1490 1492 1494 1495 1495 1497 1499 1499 1500 1502 1503 1504 1505 1507 1508 1510 1511 1511 1512 1513
1458 1458 1457 1456 1456 1459 1461 1463 1465 1469 1474 1474 1472 1472 1474 1475 1477 1478 1480 1482 1482 1483 1484 1486 1488 1490 1492 1493 1494 1495 1495 1496 1497 1498 1499 1499 1499 1502 1504 1505 1505 1506 1507
1457 1456 1456 1456 1458 1460 1461 1461 1462 1464 1467 1472 1468 1469 1470 1472 1473 1473 1475 1477 1478 1479 1480 1482 1484 1486 1489 1490 1491 1491 1493 1493 1493 1493 1495 1497 1498 1499 1500 1501 1501 1502 1503
1458 1458 1459 1460 1461 1461 1461 1462 1462 1462 1463 1464 1464 1465 1467 1467 1468 1468 1470 1471 1473 1474 1477 1479 1481 1482 1484 1486 1487 1488 1490 1490 1489 1490 1491 1492 1494 1495 1495 1496 1497 1499 1500
1461 1462 1462 1462 1462 1462 1462 1463 1462 1462 1462 1462 1462 1462 1463 1463 1464 1464 1465 1466 1468 1470 1472 1473 1475 1476 1478 1480 1482 1484 1486 1486 1486 1486 1487 1488 1490 1491 1492 1493 1494 1494 1495
1464 1465 1464 1464 1464 1465 1465 1465 1463 1462 1462 1462 1462 1461 1461 1460 1460 1460 1460 1461 1463 1465 1467 1467 1468 1470 1472 1474 1475 1478 1481 1482 1482 1483 1484 1484 1486 1488 1489 1490 1490 1491 1491
1467 1467 1468 1467 1467 1468 1468 1467 1465 1464 1462 1461 1461 1461 1460 1459 1459 1458 1458 1459 1461 1462 1463 1464 1466 1468 1469 1470 1470 1472 1476 1479 1480 1480 1480 1481 1483 1484 1486 1486 1487 1488 1489
1470 1470 1470 1471 1470 1470 1470 1469 1467 1465 1464 1463 1462 1461 1460 1459 1459 1459 1460 1461 1462 1464 1465 1465 1466 1466 1466 1467 1468 1470 1472 1474 1476 1476 1476 1478 1480 1481 1482 1483 1484 1485 1486
1472 1471 1472 1474 1473 1471 1470 1470 1468 1467 1466 1465 1464 1462 1461 1461 1459 1459 1461 1463 1464 1465 1466 1466 1465 1465 1465 1465 1466 1467 1469 1470 1472 1473 1474 1476 1478 1478 1479 1480 1482 1483 1483
1471 1471 1474 1476 1475 1473 1471 1470 1469 1468 1468 1467 1465 1464 1463 1462 1460 1460 1462 1464 1464 1464 1465 1464 1464 1463 1462 1462 1462 1465 1467 1468 1471 1472 1473 1474 1477 1478 1478 1479 1479 1479 1479
1472 1473 1474 1475 1475 1474 1473 1471 1470 1469 1469 1468 1467 1466 1466 1465 1463 1463 1463 1464 1464 1464 1463 1463 1462 1461 1459 1459 1460 1462 1465 1467 1468 1470 1471 1474 1476 1478 1478 1477 1477 1477 1477